Regional Weather Roundup
Issued by NWS

Home | Current Version | Previous Version | Text Only | Print | Product List | Glossary Off
Versions: 1 2 3 4 5 6 7 8 9 10 11 12 13 14 15 16 17 18 19 20 21 22 23 24 25 26 27 28 29 30 31 32 33 34 35 36 37 38 39 40 41 42 43 44 45 46 47 48 49 50

000
ASUS45 KCYS 312110
RWRWY

WYOMING REGIONAL WEATHER ROUNDUP
NATIONAL WEATHER SERVICE CHEYENNE WY
300 PM MDT MON AUG 31 2015

NOTE:  "FAIR" INDICATES FEW OR NO CLOUDS BELOW 12,000 FEET
WITH NO SIGNIFICANT WEATHER AND/OR OBSTRUCTIONS TO VISIBILITY.

WYZ001-312200-
YELLOWSTONE NATIONAL PARK

CITY           SKY/WX    TMP DP  RH WIND       PRES   REMARKS
LK YELLOWSTONE   N/A     63  27  25 SW9       30.24F
W YELLOWSTONE  NOT AVBL

$$
WYZ002>013-054>058-071-098>099-312200-
NORTHERN WYOMING

CITY           SKY/WX    TMP DP  RH WIND       PRES   REMARKS
JACKSON        SUNNY     72  27  18 SW9       30.15F
CODY           FAIR      81  27  13 W8G16     29.97S
GREYBULL       FAIR      85  27  12 SE7       29.90F
WORLAND        FAIR      88  33  14 N7        29.89F
SHERIDAN       FAIR      81  44  27 SE12      29.92F
BUFFALO        FAIR      80  44  27 E14       29.96F
GILLETTE       FAIR      81  45  28 S12       29.95F
HULETT         FAIR      77  48  36 E5        29.99F
NEWCASTLE      FAIR      81  43  26 SE12      29.99F

$$
WYZ014>020-022>026-101>103-312200-
CENTRAL WYOMING

CITY           SKY/WX    TMP DP  RH WIND       PRES   REMARKS
BIG PINEY      FAIR      79  24  13 W17G33    30.18F
PINEDALE       FAIR      73  21  14 NW3       30.18F
DUBOIS         FAIR      73  18  12 NW21G26   30.13F
LANDER         FAIR      84  20   9 W20G31    30.01F
RIVERTON       FAIR      84  17   8 W17       30.01F
CASPER         FAIR      87  36  16 SW22G32   30.00F
DOUGLAS        FAIR      86  41  20 SE5       30.02F

$$
WYZ021-027>030-104>119-312200-
SOUTHERN WYOMING

CITY           SKY/WX    TMP DP  RH WIND       PRES   REMARKS
EVANSTON       FAIR      78  34  20 W15G28    30.19F
KEMMERER       FAIR      77  25  14 W22G30    30.20F
FORT BRIDGER   MOCLDY    82  30  15 W16G23    30.20F
ROCK SPRINGS   FAIR      76  39  26 SW16G24   30.18F
DIXON          MOCLDY    75  47  36 NW7       30.17F
RAWLINS        FAIR      79  40  24 SW20G29   30.16F
SARATOGA       FAIR      77  41  27 SW5G20    30.19F
LARAMIE        CLOUDY    66  38  35 NW22G35   30.23R
CHEYENNE       CLOUDY    79  39  23 N14       30.13S
TORRINGTON     FAIR      88  43  20 VRB5      29.98F
PINE BLUFFS    FAIR      86  41  20 N6        30.07F

$$


USA.gov is the U.S. government's official web portal to all federal, state and local government web resources and services.